Year,Month,Day,Hour,Minute,Value (Times are PST for insolation in W/m^2)
2022,06,29,00,00,0.00
2022,06,29,00,01,0.00
2022,06,29,00,02,0.00
2022,06,29,00,03,0.00
2022,06,29,02,35,1779.00
2022,06,29,02,36,1779.00
2022,06,29,02,37,1779.00
2022,06,29,02,38,1779.00
2022,06,29,02,39,1754.60
2022,06,29,02,40,1746.00
2022,06,29,02,41,1746.00
2022,06,29,02,42,1746.00
2022,06,29,02,43,1745.30
2022,06,29,02,44,1745.40
2022,06,29,02,45,1746.40
2022,06,29,02,46,1746.00
2022,06,29,02,47,1744.30
2022,06,29,02,48,1745.90
2022,06,29,02,49,1746.00
2022,06,29,02,50,1746.30
2022,06,29,02,51,1748.90
2022,06,29,02,52,1752.20
2022,06,29,02,53,1753.00
2022,06,29,02,54,1753.00
2022,06,29,02,55,1754.00
2022,06,29,02,56,1754.00
2022,06,29,02,57,1752.90
2022,06,29,02,58,1752.00
2022,06,29,02,59,1751.70
2022,06,29,03,00,1751.00
2022,06,29,03,01,1751.00
2022,06,29,03,02,1749.80
2022,06,29,03,03,1756.00
2022,06,29,03,04,1756.00
2022,06,29,03,05,1755.00
2022,06,29,03,06,1753.40
2022,06,29,03,07,1753.70
2022,06,29,03,08,1754.00
2022,06,29,03,09,1754.00
2022,06,29,03,10,1754.00
2022,06,29,03,11,1754.70
2022,06,29,03,12,1756.00
2022,06,29,03,13,1754.80
2022,06,29,03,14,1754.00
2022,06,29,03,15,1754.00
2022,06,29,03,16,1753.20
2022,06,29,03,17,1753.70
2022,06,29,03,18,1752.30
2022,06,29,03,19,1750.00
2022,06,29,03,20,1744.60
2022,06,29,03,21,1733.80
2022,06,29,03,22,1732.70
2022,06,29,03,23,1729.80
2022,06,29,03,24,1728.50
2022,06,29,03,25,1730.40
2022,06,29,03,26,1730.50
2022,06,29,03,27,1730.60
2022,06,29,03,28,1731.00
2022,06,29,03,29,1728.40
2022,06,29,03,30,1726.00
2022,06,29,03,31,1724.70
2022,06,29,03,32,1721.00
2022,06,29,03,33,1721.00
2022,06,29,03,34,1721.00
2022,06,29,03,35,1721.00
2022,06,29,03,36,1721.00
2022,06,29,03,37,1720.00
2022,06,29,03,38,1712.50
2022,06,29,03,39,1714.00
2022,06,29,03,40,1715.40
2022,06,29,03,41,1679.80
2022,06,29,03,42,1663.20
2022,06,29,03,43,1655.60
2022,06,29,03,44,1646.20
2022,06,29,03,45,1623.10
2022,06,29,03,46,1563.70
2022,06,29,03,47,1563.00
2022,06,29,03,48,1560.60
2022,06,29,03,49,1559.00
2022,06,29,03,50,1553.00
2022,06,29,03,51,1549.20
2022,06,29,03,52,1543.00
2022,06,29,03,53,1543.00
2022,06,29,03,54,1543.00
2022,06,29,03,55,1543.00
2022,06,29,03,56,1543.00
2022,06,29,03,57,1543.00
2022,06,29,03,58,1549.90
2022,06,29,03,59,1550.30
2022,06,29,04,00,1565.10
2022,06,29,04,01,1584.00
2022,06,29,04,02,1588.40
2022,06,29,04,03,1598.40
2022,06,29,04,04,1601.00
2022,06,29,04,05,1601.00
2022,06,29,04,06,1601.00
2022,06,29,04,07,1601.00
2022,06,29,04,08,1642.50
2022,06,29,04,09,1691.60
2022,06,29,04,10,1696.00
2022,06,29,04,11,1696.00
2022,06,29,04,12,1696.00
2022,06,29,04,13,1696.00
2022,06,29,04,14,1696.00
2022,06,29,04,15,1696.00
2022,06,29,04,16,1684.00
2022,06,29,04,17,1622.20
2022,06,29,04,18,1603.00
2022,06,29,04,19,1603.00
2022,06,29,04,20,1603.00
2022,06,29,04,21,1603.00
2022,06,29,04,22,1616.50
2022,06,29,04,23,1631.00
2022,06,29,04,24,1631.00
2022,06,29,04,25,1632.80
2022,06,29,04,26,1635.00
2022,06,29,04,27,1635.00
2022,06,29,04,28,1635.00
2022,06,29,04,29,1635.00
2022,06,29,04,30,1635.00
2022,06,29,04,31,1632.00
2022,06,29,04,32,1629.20
2022,06,29,04,33,1629.00
2022,06,29,04,34,1628.70
2022,06,29,04,35,1628.00
2022,06,29,04,36,1628.00
2022,06,29,04,37,1628.00
2022,06,29,04,38,1624.90
2022,06,29,04,39,1624.00
2022,06,29,04,40,1621.00
2022,06,29,04,41,1621.00
2022,06,29,04,42,1620.30
2022,06,29,04,43,1618.00
2022,06,29,04,44,1615.70
2022,06,29,04,45,1614.30
2022,06,29,04,46,1614.00
2022,06,29,04,47,1613.60
2022,06,29,04,48,1609.50
2022,06,29,04,49,1608.00
2022,06,29,04,50,1608.00
2022,06,29,04,51,1608.00
2022,06,29,04,52,1608.00
2022,06,29,04,53,1608.00
2022,06,29,04,54,1602.80
2022,06,29,04,55,1601.00
2022,06,29,04,56,1601.00
2022,06,29,04,57,1601.00
2022,06,29,04,58,1601.00
2022,06,29,04,59,1598.80
2022,06,29,05,00,1598.00
2022,06,29,05,01,1595.80
2022,06,29,05,02,1594.00
2022,06,29,05,03,1594.00
2022,06,29,05,04,1593.50
2022,06,29,05,05,1593.00
2022,06,29,05,06,1593.00
2022,06,29,05,07,1593.00
2022,06,29,05,08,1591.00
2022,06,29,05,09,1591.00
2022,06,29,05,10,1590.30
2022,06,29,05,11,1589.00
2022,06,29,05,12,1589.00
2022,06,29,05,13,1589.00
2022,06,29,05,14,1589.00
2022,06,29,05,15,1588.20
2022,06,29,05,16,1581.60
2022,06,29,05,17,1579.60
2022,06,29,05,18,1579.00
2022,06,29,05,19,1577.70
2022,06,29,05,20,1577.00
2022,06,29,05,21,1577.00
2022,06,29,05,22,1577.00
2022,06,29,05,23,1577.00
2022,06,29,05,24,1575.50
2022,06,29,05,25,1573.00
2022,06,29,05,26,1573.00
2022,06,29,05,27,1573.00
2022,06,29,05,28,1573.00
2022,06,29,05,29,1571.10
2022,06,29,05,30,1571.00
2022,06,29,05,31,1571.00
2022,06,29,05,32,1570.50
2022,06,29,05,33,1570.00
2022,06,29,05,34,1568.50
2022,06,29,05,35,1568.00
2022,06,29,05,36,1568.00
2022,06,29,05,37,1568.00
2022,06,29,05,38,1566.70
2022,06,29,05,39,1564.00
2022,06,29,05,40,1564.00
2022,06,29,05,41,1564.00
2022,06,29,05,42,1564.00
2022,06,29,05,43,1563.90
2022,06,29,05,44,1563.00
2022,06,29,05,45,1562.30
2022,06,29,05,46,1561.00
2022,06,29,05,47,1561.00
2022,06,29,05,48,1561.00
2022,06,29,05,49,1561.00
2022,06,29,05,50,1561.00
2022,06,29,05,51,1560.60
2022,06,29,05,52,1559.00
2022,06,29,05,53,1559.00
2022,06,29,05,54,1559.00
2022,06,29,05,55,1559.00
2022,06,29,05,56,1559.00
2022,06,29,05,57,1559.00
2022,06,29,05,58,1559.00
2022,06,29,05,59,1559.00
2022,06,29,06,00,1558.00
2022,06,29,06,01,1557.00
2022,06,29,06,02,1557.00
2022,06,29,06,03,1557.00
2022,06,29,06,04,1557.00
2022,06,29,06,05,1557.00
2022,06,29,06,06,1557.00
2022,06,29,06,07,1556.50
2022,06,29,06,08,1556.00
2022,06,29,06,09,1556.00
2022,06,29,06,10,1556.00
2022,06,29,06,11,1556.00
2022,06,29,06,12,1555.60
2022,06,29,06,13,1554.00
2022,06,29,06,14,1554.00
2022,06,29,06,15,1554.00
2022,06,29,06,16,1554.00
2022,06,29,06,17,1554.00
2022,06,29,06,18,1554.00
2022,06,29,06,19,1554.00
2022,06,29,06,20,1554.00
2022,06,29,06,21,1554.00
2022,06,29,06,22,1552.80
2022,06,29,06,23,1552.00
2022,06,29,06,24,1552.00
2022,06,29,06,25,1552.00
2022,06,29,06,26,1552.00
2022,06,29,06,27,1552.00
2022,06,29,06,28,1552.00
2022,06,29,06,29,1552.00
2022,06,29,06,30,1552.00
2022,06,29,06,31,1552.00
2022,06,29,06,32,1552.00
2022,06,29,06,33,1552.00
2022,06,29,06,34,1552.00
2022,06,29,06,35,1552.00
2022,06,29,06,36,1550.70
2022,06,29,06,37,1550.00
2022,06,29,06,38,1550.00
2022,06,29,06,39,1549.00
2022,06,29,06,40,1549.00
2022,06,29,06,41,1549.00
2022,06,29,06,42,1549.00
2022,06,29,06,43,1549.00
2022,06,29,06,44,1549.00
2022,06,29,06,45,1547.30
2022,06,29,06,46,1547.00
2022,06,29,06,47,1547.00
2022,06,29,06,48,1547.00
2022,06,29,06,49,1547.00
2022,06,29,06,50,1547.00
2022,06,29,06,51,1547.00
2022,06,29,06,52,1547.00
2022,06,29,06,53,1546.80
2022,06,29,06,54,1545.00
2022,06,29,06,55,1545.00
2022,06,29,06,56,1545.00
2022,06,29,06,57,1543.70
2022,06,29,06,58,1543.00
2022,06,29,06,59,1543.00
2022,06,29,07,00,1543.00
2022,06,29,07,01,1543.00
2022,06,29,07,02,1543.00
2022,06,29,07,03,1543.00
2022,06,29,07,04,1543.00
2022,06,29,07,05,1543.00
2022,06,29,07,06,1543.00
2022,06,29,07,07,1542.00
2022,06,29,07,08,1542.00
2022,06,29,07,09,1542.00
2022,06,29,07,10,1542.00
2022,06,29,07,11,1542.00
2022,06,29,07,12,1542.00
2022,06,29,07,13,1540.30
2022,06,29,07,14,1539.80
2022,06,29,07,15,1538.00
2022,06,29,07,16,1538.00
2022,06,29,07,17,1538.00
2022,06,29,07,18,1538.00
2022,06,29,07,19,1538.00
2022,06,29,07,20,1538.00
2022,06,29,07,21,1538.00
2022,06,29,07,22,1538.00
2022,06,29,07,23,1538.00
2022,06,29,07,24,1537.00
2022,06,29,07,25,1536.00
2022,06,29,07,26,1536.00
2022,06,29,07,27,1536.00
2022,06,29,07,28,1536.00
2022,06,29,07,29,1535.70
2022,06,29,07,30,1535.00
2022,06,29,07,31,1535.00
2022,06,29,07,32,1535.00
2022,06,29,07,33,1535.00
2022,06,29,07,34,1535.00
2022,06,29,07,35,1535.00
2022,06,29,07,36,1535.00
2022,06,29,07,37,1535.00
2022,06,29,07,38,1534.00
2022,06,29,07,39,1534.30
2022,06,29,07,40,1535.00
2022,06,29,07,41,1535.00
2022,06,29,07,42,1535.00
2022,06,29,07,43,1534.60
2022,06,29,07,44,1533.00
2022,06,29,07,45,1533.00
2022,06,29,07,46,1531.80
2022,06,29,07,47,1531.00
2022,06,29,07,48,1531.00
2022,06,29,07,49,1531.00
2022,06,29,07,50,1531.00
2022,06,29,07,51,1531.00
2022,06,29,07,52,1530.00
2022,06,29,07,53,1529.00
2022,06,29,07,54,1529.00
2022,06,29,07,55,1529.00
2022,06,29,07,56,1529.00
2022,06,29,07,57,1529.00
2022,06,29,07,58,1529.00
2022,06,29,07,59,1528.50
2022,06,29,08,00,1528.00
2022,06,29,08,01,1528.00
2022,06,29,08,02,1528.00
2022,06,29,08,03,1528.00
2022,06,29,08,04,1528.00
2022,06,29,08,05,1526.50
2022,06,29,08,06,1524.00
2022,06,29,08,07,1524.00
2022,06,29,08,08,1524.00
2022,06,29,08,09,1522.30
2022,06,29,08,10,1522.00
2022,06,29,08,11,1522.00
2022,06,29,08,12,1522.00
2022,06,29,08,13,1522.00
2022,06,29,08,14,1521.40
2022,06,29,08,15,1521.00
2022,06,29,08,16,1521.00
2022,06,29,08,17,1521.00
2022,06,29,08,18,1521.00
2022,06,29,08,19,1521.00
2022,06,29,08,20,1521.00
2022,06,29,08,21,1519.70
2022,06,29,08,22,1519.00
2022,06,29,08,23,1519.00
2022,06,29,08,24,1519.00
2022,06,29,08,25,1519.50
2022,06,29,08,26,1520.30
2022,06,29,08,27,1519.00
2022,06,29,08,28,1517.70
2022,06,29,08,29,1517.00
2022,06,29,08,30,1517.00
2022,06,29,08,31,1517.00
2022,06,29,08,32,1517.00
2022,06,29,08,33,1517.00
2022,06,29,08,34,1517.00
2022,06,29,08,35,1517.00
2022,06,29,08,36,1515.50
2022,06,29,08,37,1515.00
2022,06,29,08,38,1515.00
2022,06,29,08,39,1515.00
2022,06,29,08,40,1515.00
2022,06,29,08,41,1515.00
2022,06,29,08,42,1515.00
2022,06,29,08,43,1515.00
2022,06,29,08,44,1513.20
2022,06,29,08,45,1513.00
2022,06,29,08,46,1513.00
2022,06,29,08,47,1513.00
2022,06,29,08,48,1513.00
2022,06,29,08,49,1513.00
2022,06,29,08,50,1512.30
2022,06,29,08,51,1512.00
2022,06,29,08,52,1511.80
2022,06,29,08,53,1510.00
2022,06,29,08,54,1510.00
2022,06,29,08,55,1509.00
2022,06,29,08,56,1506.70
2022,06,29,08,57,1506.00
2022,06,29,08,58,1506.00
2022,06,29,08,59,1504.70
2022,06,29,09,00,1503.00
2022,06,29,09,01,1503.00
2022,06,29,09,02,1504.00
2022,06,29,09,03,1505.60
2022,06,29,09,04,1505.30
2022,06,29,09,05,1503.30
2022,06,29,09,06,1503.00
2022,06,29,09,07,1502.60
2022,06,29,09,08,1501.70
2022,06,29,09,09,1503.00
2022,06,29,09,10,1501.80
2022,06,29,09,11,1501.00
2022,06,29,09,12,1499.30
2022,06,29,09,13,1499.00
2022,06,29,09,14,1499.00
2022,06,29,09,15,1499.00
2022,06,29,09,16,1499.00
2022,06,29,09,17,1497.20
2022,06,29,09,18,1497.50
2022,06,29,09,19,1498.00
2022,06,29,09,20,1495.40
2022,06,29,09,21,1492.00
2022,06,29,09,22,1492.00
2022,06,29,09,23,1492.00
2022,06,29,09,24,1492.00
2022,06,29,09,25,1492.00
2022,06,29,09,26,1492.00
2022,06,29,09,27,1492.00
2022,06,29,09,28,1492.50
2022,06,29,09,29,1493.30
2022,06,29,09,30,1492.00
2022,06,29,09,31,1492.00
2022,06,29,09,32,1492.00
2022,06,29,09,33,1492.00
2022,06,29,09,34,1492.20
2022,06,29,09,35,1494.00
2022,06,29,09,36,1494.00
2022,06,29,09,37,1494.00
2022,06,29,09,38,1494.00
2022,06,29,09,39,1494.00
2022,06,29,09,40,1491.40
2022,06,29,09,41,1491.00
2022,06,29,09,42,1491.00
2022,06,29,09,43,1491.00
2022,06,29,09,44,1491.00
2022,06,29,09,45,1491.00
2022,06,29,09,46,1491.00
2022,06,29,09,47,1491.00
2022,06,29,09,48,1492.00
2022,06,29,09,49,1492.00
2022,06,29,09,50,1492.00
2022,06,29,09,51,1492.00
2022,06,29,09,52,1491.40
2022,06,29,09,53,1491.70
2022,06,29,09,54,1491.20
2022,06,29,09,55,1491.00
2022,06,29,09,56,1490.60
2022,06,29,09,57,1489.00
2022,06,29,09,58,1489.00
2022,06,29,09,59,1489.00
2022,06,29,10,00,1489.00
2022,06,29,10,01,1489.00
2022,06,29,10,02,1487.20
2022,06,29,10,03,1489.00
2022,06,29,10,04,1489.70
2022,06,29,10,05,1491.50
2022,06,29,10,06,1492.00
2022,06,29,10,07,1492.00
2022,06,29,10,08,1492.00
2022,06,29,10,09,1492.60
2022,06,29,10,10,1495.50
2022,06,29,10,11,1494.70
2022,06,29,10,12,1496.00
2022,06,29,10,13,1496.00
2022,06,29,10,14,1496.00
2022,06,29,10,15,1497.80
2022,06,29,10,16,1496.00
2022,06,29,10,17,1495.50
2022,06,29,10,18,1494.70
2022,06,29,10,19,1496.00
2022,06,29,10,20,1497.90
2022,06,29,10,21,1499.00
2022,06,29,10,22,1499.00
2022,06,29,10,23,1499.00
2022,06,29,10,24,1498.70
2022,06,29,10,25,1497.30
2022,06,29,10,26,1496.00
2022,06,29,10,27,1497.80
2022,06,29,10,28,1499.00
2022,06,29,10,29,1500.80
2022,06,29,10,30,1501.00
2022,06,29,10,31,1501.00
2022,06,29,10,32,1502.50
2022,06,29,10,33,1505.00
2022,06,29,10,34,1505.00
2022,06,29,10,35,1505.00
2022,06,29,10,36,1505.00
2022,06,29,10,37,1507.10
2022,06,29,10,38,1524.00
2022,06,29,10,39,1529.90
2022,06,29,10,40,1540.00
2022,06,29,10,41,1540.00
2022,06,29,10,42,1540.00
2022,06,29,10,43,1540.00
2022,06,29,10,44,1593.00
2022,06,29,10,45,1593.00
2022,06,29,10,46,1603.70
2022,06,29,10,47,1624.90
2022,06,29,10,48,1628.00
2022,06,29,10,49,1636.90
2022,06,29,10,50,1641.70
2022,06,29,10,51,1643.90
2022,06,29,10,52,1644.00
2022,06,29,10,53,1644.00
2022,06,29,10,54,1647.50
2022,06,29,10,55,1651.00
2022,06,29,10,56,1651.00
2022,06,29,10,57,1651.80
2022,06,29,10,58,1652.00
2022,06,29,10,59,1652.00
2022,06,29,11,00,1654.20
2022,06,29,11,01,1658.00
2022,06,29,11,02,1659.80
2022,06,29,11,03,1661.00
2022,06,29,11,04,1661.00
2022,06,29,11,05,1661.00
2022,06,29,11,06,1661.00
2022,06,29,11,07,1661.00
2022,06,29,11,08,1660.00
2022,06,29,11,09,1659.00
2022,06,29,11,10,1658.30
2022,06,29,11,11,1658.00
2022,06,29,11,12,1658.10
2022,06,29,11,13,1658.80
2022,06,29,11,14,1657.30
2022,06,29,11,15,1656.00
2022,06,29,11,16,1656.00
2022,06,29,11,17,1658.20
2022,06,29,11,18,1659.00
2022,06,29,11,19,1659.00
2022,06,29,11,20,1659.00
2022,06,29,11,21,1659.00
2022,06,29,11,22,1659.00
2022,06,29,11,23,1660.30
2022,06,29,11,24,1661.00
2022,06,29,11,25,1661.00
2022,06,29,11,26,1661.00
2022,06,29,11,27,1661.00
2022,06,29,11,28,1659.90
2022,06,29,11,29,1658.00
2022,06,29,11,30,1658.00
2022,06,29,11,31,1658.70
2022,06,29,11,32,1658.10
2022,06,29,11,33,1658.00
2022,06,29,11,34,1658.30
2022,06,29,11,35,1659.70
2022,06,29,11,36,1662.00
2022,06,29,11,37,1663.00
2022,06,29,11,38,1663.00
2022,06,29,11,39,1663.00
2022,06,29,11,40,1659.00
2022,06,29,11,41,1659.00
2022,06,29,11,42,1659.70
2022,06,29,11,43,1661.00
2022,06,29,11,44,1663.40
2022,06,29,11,45,1676.10
2022,06,29,11,46,1683.40
2022,06,29,11,47,1717.00
2022,06,29,11,48,1717.90
2022,06,29,11,49,1721.00
2022,06,29,11,50,1721.00
2022,06,29,11,51,1722.20
2022,06,29,11,52,1723.00
2022,06,29,11,53,1723.00
2022,06,29,11,54,1723.00
2022,06,29,11,55,1723.00
2022,06,29,11,56,1722.30
2022,06,29,11,57,1721.00
2022,06,29,11,58,1721.00
2022,06,29,11,59,1721.00
2022,06,29,12,00,1722.80
2022,06,29,12,01,1723.00
2022,06,29,12,02,1723.00
2022,06,29,12,03,1723.00
2022,06,29,12,04,1723.00
2022,06,29,12,05,1723.00
2022,06,29,12,06,1723.00
2022,06,29,12,07,1723.00
2022,06,29,12,08,1723.00
2022,06,29,12,09,1723.00
2022,06,29,12,10,1723.00
2022,06,29,12,11,1723.00
2022,06,29,12,12,1723.00
2022,06,29,12,13,1723.00
2022,06,29,12,14,1723.00
2022,06,29,12,15,1724.00
2022,06,29,12,16,1724.00
2022,06,29,12,17,1724.00
2022,06,29,12,18,1724.00
2022,06,29,12,19,1724.00
2022,06,29,12,20,1724.00
2022,06,29,12,21,1724.00
2022,06,29,12,22,1724.00
2022,06,29,12,23,1724.00
2022,06,29,12,24,1724.00
2022,06,29,12,25,1724.00
2022,06,29,12,26,1724.00
2022,06,29,12,27,1724.00
2022,06,29,12,28,1724.00
2022,06,29,12,29,1724.00
2022,06,29,12,30,1724.00
2022,06,29,12,31,1724.00
2022,06,29,12,32,1724.00
2022,06,29,12,33,1724.00
2022,06,29,12,34,1724.00
2022,06,29,12,35,1724.00
2022,06,29,12,36,1724.00
2022,06,29,12,37,1724.00
2022,06,29,12,38,1724.00
2022,06,29,12,39,1724.00
2022,06,29,12,40,1724.00
2022,06,29,12,41,1724.00
2022,06,29,12,42,1724.00
2022,06,29,12,43,1724.00
2022,06,29,12,44,1724.00
2022,06,29,12,45,1724.00
2022,06,29,12,46,1724.00
2022,06,29,12,47,1724.00
2022,06,29,12,48,1724.00
2022,06,29,12,49,1724.00
2022,06,29,12,50,1724.00
2022,06,29,12,51,1724.00
2022,06,29,12,52,1724.00
2022,06,29,12,53,1724.00
2022,06,29,12,54,1724.00
2022,06,29,12,55,1724.00
2022,06,29,12,56,1724.00
2022,06,29,12,57,1724.00
2022,06,29,12,58,1724.00
2022,06,29,12,59,1724.00
2022,06,29,13,00,1724.00
2022,06,29,13,01,1724.00
2022,06,29,13,02,1724.00
2022,06,29,13,03,1724.00
2022,06,29,13,04,1724.00
2022,06,29,13,05,1724.00
2022,06,29,13,06,1724.00
2022,06,29,13,07,1724.00
2022,06,29,13,08,1724.00
2022,06,29,13,09,1724.00
2022,06,29,13,10,1724.00
2022,06,29,13,11,1724.00
2022,06,29,13,12,1724.00
2022,06,29,13,13,1724.00
2022,06,29,13,14,1724.00
2022,06,29,13,15,1724.00
2022,06,29,13,16,1724.00
2022,06,29,13,17,1724.00
2022,06,29,13,18,1724.00
2022,06,29,13,19,1724.00
2022,06,29,13,20,1724.70
2022,06,29,13,21,1725.00
2022,06,29,13,22,1724.00
2022,06,29,13,23,1724.00
2022,06,29,13,24,1725.80
2022,06,29,13,25,1726.00
2022,06,29,13,26,1726.00
2022,06,29,13,27,1726.00
2022,06,29,13,28,1726.00
2022,06,29,13,29,1726.00
2022,06,29,13,30,1726.00
2022,06,29,13,31,1726.00
2022,06,29,13,32,1726.00
2022,06,29,13,33,1726.00
2022,06,29,13,34,1726.00
2022,06,29,13,35,1726.00
2022,06,29,13,36,1726.00
2022,06,29,13,37,1727.50
2022,06,29,13,38,1726.30
2022,06,29,13,39,1728.00
2022,06,29,13,40,1728.00
2022,06,29,13,41,1728.00
2022,06,29,13,42,1728.00
2022,06,29,13,43,1728.00
2022,06,29,13,44,1728.00
2022,06,29,13,45,1728.00
2022,06,29,13,46,1728.00
2022,06,29,13,47,1728.00
2022,06,29,13,48,1728.00
2022,06,29,13,49,1728.00
2022,06,29,13,50,1728.00
2022,06,29,13,51,1728.00
2022,06,29,13,52,1728.00
2022,06,29,13,53,1728.00
2022,06,29,13,54,1728.00
2022,06,29,13,55,1728.00
2022,06,29,13,56,1729.00
2022,06,29,13,57,1730.00
2022,06,29,13,58,1730.00
2022,06,29,13,59,1730.00
2022,06,29,14,00,1730.00
2022,06,29,14,01,1730.00
2022,06,29,14,02,1731.10
2022,06,29,14,03,1734.00
2022,06,29,14,04,1735.00
2022,06,29,14,05,1735.00
2022,06,29,14,06,1735.00
2022,06,29,14,07,1737.00
2022,06,29,14,08,1737.00
2022,06,29,14,09,1737.40
2022,06,29,14,10,1738.00
2022,06,29,14,11,1738.00
2022,06,29,14,12,1738.00
2022,06,29,14,13,1738.00
2022,06,29,14,14,1738.00
2022,06,29,14,15,1738.00
2022,06,29,14,16,1738.00
2022,06,29,14,17,1738.00
2022,06,29,14,18,1738.00
2022,06,29,14,19,1738.00
2022,06,29,14,20,1739.80
2022,06,29,14,21,1740.00
2022,06,29,14,22,1740.00
2022,06,29,14,23,1740.00
2022,06,29,14,24,1740.00
2022,06,29,14,25,1741.30
2022,06,29,14,26,1742.00
2022,06,29,14,27,1742.00
2022,06,29,14,28,1742.00
2022,06,29,14,29,1742.00
2022,06,29,14,30,1742.00
2022,06,29,14,31,1742.00
2022,06,29,14,32,1742.00
2022,06,29,14,33,1742.00
2022,06,29,14,34,1742.00
2022,06,29,14,35,1742.30
2022,06,29,14,36,1744.00
2022,06,29,14,37,1744.00
2022,06,29,14,38,1744.00
2022,06,29,14,39,1744.00
2022,06,29,14,40,1744.00
2022,06,29,14,41,1744.00
2022,06,29,14,42,1744.20
2022,06,29,14,43,1746.00
2022,06,29,14,44,1746.00
2022,06,29,14,45,1746.00
2022,06,29,14,46,1746.00
2022,06,29,14,47,1746.00
2022,06,29,14,48,1746.00
2022,06,29,14,49,1747.00
2022,06,29,14,50,1747.00
2022,06,29,14,51,1747.00
2022,06,29,14,52,1747.00
2022,06,29,14,53,1748.30
2022,06,29,14,54,1749.00
2022,06,29,14,55,1749.00
2022,06,29,14,56,1751.00
2022,06,29,14,57,1751.00
2022,06,29,14,58,1751.00
2022,06,29,14,59,1751.00
2022,06,29,15,00,1751.00
2022,06,29,15,01,1751.00
2022,06,29,15,02,1752.70
2022,06,29,15,03,1753.00
2022,06,29,15,04,1753.00
2022,06,29,15,05,1753.00
2022,06,29,15,06,1753.50
2022,06,29,15,07,1754.00
2022,06,29,15,08,1754.00
2022,06,29,15,09,1754.00
2022,06,29,15,10,1754.00
2022,06,29,15,11,1754.00
2022,06,29,15,12,1754.00
2022,06,29,15,13,1754.00
2022,06,29,15,14,1754.00
2022,06,29,15,15,1754.00
2022,06,29,15,16,1754.00
2022,06,29,15,17,1754.00
2022,06,29,15,18,1754.00
2022,06,29,15,19,1754.00
2022,06,29,15,20,1754.00
2022,06,29,15,21,1754.00
2022,06,29,15,22,1754.00
2022,06,29,15,23,1754.00
2022,06,29,15,24,1754.00
2022,06,29,15,25,1754.00
2022,06,29,15,26,1754.00
2022,06,29,15,27,1754.00
2022,06,29,15,28,1754.00
2022,06,29,15,29,1754.00
2022,06,29,15,30,1754.00
2022,06,29,15,31,1754.00
2022,06,29,15,32,1754.00
2022,06,29,15,33,1754.00
2022,06,29,15,34,1754.00
2022,06,29,15,35,1754.00
2022,06,29,15,36,1754.00
2022,06,29,15,37,1754.00
2022,06,29,15,38,1754.00
2022,06,29,15,39,1754.00
2022,06,29,15,40,1754.00
2022,06,29,15,41,1754.00
2022,06,29,15,42,1754.00
2022,06,29,15,43,1754.00
2022,06,29,15,44,1754.00
2022,06,29,15,45,1754.00
2022,06,29,15,46,1754.00
2022,06,29,15,47,1754.00
2022,06,29,15,48,1755.00
2022,06,29,15,49,1756.00
2022,06,29,15,50,1756.00
2022,06,29,15,51,1756.00
2022,06,29,15,52,1756.00
2022,06,29,15,53,1756.00
2022,06,29,15,54,1756.00
2022,06,29,15,55,1756.00
2022,06,29,15,56,1756.00
2022,06,29,15,57,1756.00
2022,06,29,15,58,1756.00
2022,06,29,15,59,1756.00
2022,06,29,16,00,1756.00
2022,06,29,16,01,1756.00
2022,06,29,16,02,1756.00
2022,06,29,16,03,1756.00
2022,06,29,16,04,1756.00
2022,06,29,16,05,1756.00
2022,06,29,16,06,1756.00
2022,06,29,16,07,1756.00
2022,06,29,16,08,1756.00
2022,06,29,16,09,1756.00
2022,06,29,16,10,1756.00
2022,06,29,16,11,1756.00
2022,06,29,16,12,1756.00
2022,06,29,16,13,1756.00
2022,06,29,16,14,1756.00
2022,06,29,16,15,1756.00
2022,06,29,16,16,1757.00
2022,06,29,16,17,1762.20
2022,06,29,16,18,1765.00
2022,06,29,16,19,1765.00
2022,06,29,16,20,1765.00
2022,06,29,16,21,1765.00
2022,06,29,16,22,1765.00
2022,06,29,16,23,1765.00
2022,06,29,16,24,1765.00
2022,06,29,16,25,1765.00
2022,06,29,16,26,1765.00
2022,06,29,16,27,1765.00
